Cloud_Cover
100 100 100 100 38 17 21 100 99 100 98 96 48 8 99 38 12 5 5 7 7 64 50 52 83 5 0 5 0 0 0 0 0 0 74 99 100 100 40 4 0 98 81
100 64 5 51 20 52 70 97 97 25 100 88 100 89 74 96 18 4 5 79 97 75 100 96 96 5 5 4 0 0 0 0 75 17 0 10 100 100 57 2 85 75 54
100 76 3 19 58 13 100 100 96 100 100 100 100 100 100 100 100 100 13 7 100 39 2 47 100 100 77 0 0 0 0 0 0 0 0 0 0 3 24 2 96 75 86
59 0 52 44 68 99 100 100 100 100 100 100 100 100 100 100 100 100 91 2 2 8 96 100 100 46 4 0 0 0 0 2 0 0 0 0 0 5 35 45 100 93 100
58 68 5 38 99 100 100 100 100 100 100 100 100 100 100 100 100 100 100 100 100 100 99 100 96 5 1 4 1 5 1 5 0 0 0 0 0 5 88 100 100 100 58
82 97 66 5 100 100 100 100 100 100 100 100 100 100 100 100 100 100 78 97 100 87 40 100 44 4 4 2 2 4 5 5 5 4 5 0 0 0 0 1 34 5 44
19 57 9 100 100 100 100 100 100 100 100 100 100 100 100 100 100 100 95 100 68 25 100 85 44 1 5 5 5 5 5 5 5 12 5 0 0 0 0 0 0 0 0
94 94 67 100 100 100 100 100 100 100 100 100 100 98 100 100 97 94 98 100 93 92 55 6 6 5 5 5 56 5 5 5 59 5 1 4 0 0 0 0 5 0 0
100 93 78 100 100 100 100 100 100 100 100 100 100 100 100 100 80 98 97 52 5 5 32 34 5 64 6 5 77 100 94 28 5 5 5 5 0 0 0 0 0 0 0
100 100 100 100 100 100 100 100 100 100 100 100 100 100 100 99 100 100 95 76 10 5 8 42 52 98 27 94 77 58 90 46 7 10 46 37 12 4 1 5 2 1 4
100 100 100 100 100 100 100 100 100 100 100 100 100 100 100 100 81 15 76 85 98 100 91 100 100 100 5 20 93 99 87 73 62 33 89 100 37 53 71 13 5 15 55
100 100 100 100 100 100 100 100 100 100 100 100 99 100 100 100 100 100 71 96 100 100 87 81 100 100 97 28 10 96 94 80 54 94 99 100 100 93 100 44 96 100 99
100 100 100 100 100 100 100 100 100 100 100 100 100 100 100 100 100 100 68 100 65 99 89 98 100 100 88 91 95 91 48 94 33 15 100 68 100 58 63 100 100 100 100
100 100 100 100 100 100 100 100 100 100 100 100 100 100 100 100 100 100 100 100 100 99 94 96 96 100 100 100 86 27 60 16 5 5 89 20 20 100 100 100 100 92 7
100 100 100 100 100 100 100 100 100 100 100 100 100 100 100 98 100 100 100 73 96 90 96 100 100 100 100 88 88 52 68 65 5 5 46 100 100 100 100 100 100 63 100
100 100 100 100 100 100 100 100 100 100 100 100 100 99 100 100 100 100 100 100 100 100 100 100 100 100 100 100 76 79 38 51 74 98 100 100 100 100 100 100 100 100 92
100 100 100 100 100 100 100 100 100 100 100 100 100 100 100 96 100 100 100 100 100 100 100 100 92 100 100 99 100 100 94 84 82 100 100 100 100 100 100 100 100 54 60
100 100 100 100 100 100 100 100 100 100 100 100 100 100 100 100 100 100 100 100 100 100 100 100 100 100 100 100 100 100 100 87 100 100 100 100 100 100 100 100 100 100 51
100 100 100 100 100 100 100 100 100 100 100 100 100 100 100 100 100 100 100 100 100 99 100 100 100 97 100 100 99 100 100 100 100 100 100 100 100 100 65 43 100 100 93
100 100 100 100 100 100 100 100 100 100 100 100 100 100 100 100 100 100 100 100 100 100 100 100 100 100 100 100 100 100 100 100 100 100 100 100 100 100 98 100 100 100 44
100 99 31 100 100 100 100 100 100 100 100 100 100 100 100 100 100 100 100 100 100 100 100 100 100 100 100 100 100 100 100 100 100 100 100 79 100 100 100 100 21 11 5
100 100 100 90 100 100 100 100 100 100 100 100 100 100 100 100 100 100 100 100 100 100 100 100 100 100 100 100 100 100 100 100 100 100 98 100 100 100 72 88 81 92 100
100 100 100 92 100 100 100 100 100 100 100 100 100 100 100 98 100 100 100 97 100 100 100 100 100 100 100 100 100 100 100 100 100 100 100 98 100 100 94 85 75 100 100
100 100 100 100 59 100 100 100 100 100 100 100 100 100 100 100 100 100 100 100 100 100 100 100 100 100 100 100 100 100 100 100 100 100 100 94 100 92 99 100 100 100 100
81 61 82 100 99 100 100 100 100 100 100 100 100 100 100 100 100 100 100 100 100 100 100 100 100 100 100 100 100 100 100 100 100 100 100 100 100 100 100 96 100 100 100
87 31 30 53 97 100 100 95 100 100 100 100 100 100 100 100 100 100 100 100 100 100 100 100 100 100 100 100 100 100 94 84 100 100 100 100 100 100 100 100 100 100 100